Driggs, ID

3:07 PM MDT on May 29, 2017 (GMT -0600)
Driggs

Weather History for KDIJ - July, 2013

Change the Weather History Date:

Sunday, July 28, 2013

  Actual Average (KJAC) Record (KJAC)
Temperature  
Mean Temperature 60 °F -  
Max Temperature 77 °F 80 °F 89 °F (2006)
Min Temperature 43 °F 42 °F 30 °F (2015)
Degree Days  
Heating Degree Days 5    
Growing Degree Days 10 (Base 50)    
Moisture  
Dew Point 46 °F    
Average Humidity 65    
Maximum Humidity 97    
Minimum Humidity 22    
Precipitation  
Precipitation 0.00 in - - ()
Sea Level Pressure  
Sea Level Pressure 29.91 in    
Wind  
Wind Speed 7 mph (ESE)    
Max Wind Speed 30 mph    
Max Gust Speed 43 mph    
Visibility 10 miles    
Events Rain , Thunderstorm    
Averages and records for this station are not official NWS values.
T = Trace of Precipitation, MM = Missing Value Source: NWS Daily Summary

Daily Weather History Graph

Daily Weather History Graph

Search for Another Location

Airport or City:

Trip Planner

Search our weather history database for the weather conditions in past years. The results will help you decide how hot, cold, wet, or windy it might be!

Date:

Astronomy

Jul. 28, 2013 Rise Set
Actual Time 6:09 AM MDT 8:51 PM MDT
Civil Twilight 5:36 AM MDT 9:24 PM MDT
Nautical Twilight 4:54 AM MDT 10:06 PM MDT
Astronomical Twilight 4:06 AM MDT 10:54 PM MDT
Moon 11:59 PM MDT (7/28) 1:10 PM MDT (7/28)
Length of Visible Light 15h 48m
Length of Day
14h 42m
Waning Gibbous, 60% of the Moon is Illuminated
Jul 28
Waning Gibbous
Jul 29
Last Quarter
Aug 6
New
Aug 14
First Quarter
Aug 20
Full

Hourly Weather History & Observations

Time (MDT) Temp. Windchill Dew Point Humidity Pressure Visibility Wind Dir Wind Speed Gust Speed Precip Events Conditions
12:56 AM 48.9 °F - 47.8 °F 96% 29.93 in 10.0 mi ENE 4.6 mph - N/A   Clear
1:56 AM 50.0 °F - 47.8 °F 92% 29.92 in 10.0 mi ESE 3.5 mph - N/A   Clear
2:56 AM 47.8 °F - 46.9 °F 97% 29.91 in 10.0 mi East 4.6 mph - N/A   Clear
3:56 AM 46.9 °F - 45.0 °F 93% 29.89 in 10.0 mi East 5.8 mph - N/A   Clear
4:56 AM 46.9 °F - 43.9 °F 89% 29.87 in 10.0 mi ESE 5.8 mph - N/A   Clear
5:56 AM 43.9 °F 40.5 °F 41.9 °F 93% 29.92 in 10.0 mi ENE 5.8 mph - N/A   Clear
6:56 AM 47.8 °F - 45.9 °F 93% 29.91 in 10.0 mi NE 5.8 mph - N/A   Partly Cloudy
7:56 AM 52.0 °F - 48.9 °F 89% 29.90 in 10.0 mi Calm Calm - N/A   Overcast
8:56 AM 56.8 °F - 50.9 °F 80% 29.89 in 10.0 mi East 3.5 mph - N/A   Mostly Cloudy
10:56 AM 68.9 °F - 47.8 °F 47% 29.87 in 10.0 mi South 6.9 mph - N/A   Mostly Cloudy
11:56 AM 72.0 °F - 43.9 °F 36% 29.86 in 10.0 mi Variable 4.6 mph - N/A   Scattered Clouds
12:56 PM 72.9 °F - 47.8 °F 41% 29.85 in 10.0 mi Variable 6.9 mph - 0.00 in   Partly Cloudy
1:56 PM 77.0 °F - 45.9 °F 33% 29.80 in 10.0 mi WNW 9.2 mph - N/A   Partly Cloudy
2:13 PM 75.2 °F - 46.4 °F 36% 30.04 in 10.0 mi West 8.1 mph - N/A   Scattered Clouds
2:56 PM 74.8 °F - 45.0 °F 34% 29.79 in 10.0 mi Variable 3.5 mph - 0.00 in   Scattered Clouds
3:56 PM 77.9 °F - 36.0 °F 22% 29.79 in 10.0 mi SW 13.8 mph - N/A   Clear
4:43 PM 66.2 °F - 42.8 °F 43% 30.10 in 10.0 mi WNW 29.9 mph 42.6 mph N/A   Mostly Cloudy
4:56 PM 59.0 °F - 45.9 °F 62% 29.92 in 9.0 mi WNW 26.5 mph 35.7 mph 0.00 in Rain Light Rain
5:03 PM 57.2 °F - 46.4 °F 67% 30.10 in 9.0 mi NW 27.6 mph 38.0 mph 0.00 in Rain , Thunderstorm Light Thunderstorms and Rain
5:18 PM 57.2 °F - 46.4 °F 67% 30.11 in 10.0 mi NW 17.3 mph 26.5 mph 0.00 in Rain Light Rain
5:56 PM 61.0 °F - 45.9 °F 58% 29.94 in 9.0 mi ESE 10.4 mph - 0.00 in Rain Light Rain
6:56 PM 66.9 °F - 45.9 °F 47% 29.87 in 10.0 mi SSW 4.6 mph - 0.00 in   Clear
7:56 PM 61.9 °F - 46.9 °F 58% 29.85 in 10.0 mi South 4.6 mph - N/A   Clear
8:56 PM 56.8 °F - 47.8 °F 72% 29.85 in 10.0 mi South 4.6 mph - N/A   Clear
9:56 PM 52.9 °F - 45.9 °F 77% 29.84 in 10.0 mi East 4.6 mph - N/A   Clear
11:56 PM 48.9 °F - 43.0 °F 80% 29.83 in 10.0 mi Calm Calm - N/A   Scattered Clouds